Total_Precipitation_Accumulation
0.64 0.99 1.29 1.15 1.14 1.20 1.04 1.07 1.13 1.12 0.97 1.08 1.15 1.10 1.15 1.12 1.09 0.95 0.86 0.78 0.79 0.77 0.78 0.74 0.75 0.85 0.84 0.75 0.73 0.83 1.00 1.17 1.35 1.50 1.65 1.85 1.97 2.01 1.95 1.90 1.92 1.80 1.59 1.66
0.85 1.00 0.83 0.76 0.82 0.92 0.95 1.03 1.08 1.02 0.85 0.95 1.01 1.03 1.07 0.99 0.93 0.78 0.72 0.69 0.65 0.63 0.65 0.66 0.59 0.60 0.63 0.65 0.68 0.77 0.94 1.20 1.41 1.61 1.82 1.99 2.35 2.48 2.41 2.39 2.26 2.16 2.03 2.03
0.81 0.73 0.60 0.72 0.84 0.95 0.93 0.91 0.93 0.93 0.96 0.96 0.96 1.12 1.13 1.05 0.89 0.72 0.62 0.57 0.53 0.50 0.55 0.58 0.53 0.50 0.47 0.49 0.58 0.70 0.83 1.05 1.37 1.69 1.96 2.16 2.37 2.62 2.69 2.53 2.45 2.41 2.44 2.47
0.67 0.56 0.54 0.65 0.71 0.80 1.04 0.68 0.64 0.70 0.90 1.17 0.98 1.35 1.13 1.00 0.91 0.73 0.65 0.58 0.53 0.53 0.54 0.53 0.50 0.50 0.48 0.52 0.60 0.72 0.82 0.97 1.18 1.45 1.83 2.16 2.42 2.73 2.73 2.58 2.53 2.56 2.61 2.63
0.62 0.55 0.56 0.67 0.60 0.61 0.77 0.52 0.55 0.67 0.74 0.82 0.73 1.03 1.06 0.86 0.93 0.83 0.75 0.68 0.60 0.54 0.55 0.52 0.51 0.51 0.54 0.57 0.63 0.77 0.89 1.02 1.18 1.44 1.77 2.14 2.38 2.59 2.71 2.65 2.51 2.43 2.50 2.42
0.55 0.47 0.48 0.50 0.45 0.49 0.57 0.58 0.61 0.66 0.76 0.92 0.57 0.78 1.02 0.91 0.86 0.85 0.80 0.79 0.68 0.51 0.54 0.57 0.60 0.61 0.60 0.64 0.74 0.87 1.00 1.16 1.29 1.43 1.58 1.75 1.97 2.27 2.40 2.50 2.48 2.46 2.47 2.33
0.56 0.48 0.37 0.35 0.52 0.53 0.57 0.87 1.18 1.14 1.11 0.96 0.48 0.67 0.93 0.75 0.65 0.66 0.66 0.68 0.67 0.60 0.61 0.69 0.76 0.75 0.73 0.75 0.89 1.01 1.11 1.18 1.23 1.23 1.31 1.44 1.63 1.87 1.99 2.08 2.21 2.25 2.31 2.29
0.58 0.54 0.39 0.33 0.42 0.56 0.55 0.73 1.20 1.28 1.09 0.89 0.70 0.93 0.97 0.67 0.56 0.56 0.57 0.57 0.60 0.67 0.73 0.87 0.99 1.02 0.95 0.94 0.98 1.00 1.10 1.08 1.08 1.13 1.20 1.30 1.41 1.57 1.64 1.70 1.83 1.90 1.87 1.87
0.54 0.50 0.29 0.26 0.26 0.37 0.50 0.47 0.51 0.76 0.75 0.88 0.86 0.97 0.91 0.62 0.53 0.55 0.59 0.60 0.62 0.77 0.88 1.04 1.21 1.25 1.16 1.10 1.06 1.08 1.18 1.14 1.07 1.12 1.25 1.31 1.34 1.36 1.35 1.41 1.36 1.38 1.44 1.46
0.42 0.47 0.31 0.24 0.28 0.29 0.35 0.39 0.53 0.87 1.14 1.20 1.00 1.03 1.09 0.79 0.61 0.60 0.69 0.80 0.88 1.02 1.10 1.23 1.34 1.35 1.30 1.33 1.31 1.16 1.16 1.22 1.17 1.27 1.34 1.30 1.27 1.24 1.24 1.25 1.25 1.24 1.31 1.38
0.36 0.50 0.39 0.30 0.32 0.34 0.32 0.40 0.59 0.87 0.96 1.30 1.48 1.41 0.97 0.78 0.74 0.73 0.79 1.08 1.16 1.22 1.30 1.35 1.42 1.40 1.28 1.27 1.25 1.25 1.21 1.20 1.23 1.28 1.33 1.24 1.23 1.25 1.24 1.20 1.23 1.29 1.35 1.45
0.41 0.56 0.48 0.29 0.25 0.29 0.43 0.56 0.76 1.21 1.21 1.12 1.52 1.57 0.97 0.80 0.83 0.84 0.85 0.91 0.99 1.19 1.29 1.30 1.39 1.36 1.26 1.22 1.11 1.17 1.25 1.25 1.34 1.37 1.30 1.24 1.33 1.36 1.40 1.36 1.33 1.33 1.34 1.33
0.55 0.73 0.76 0.58 0.55 0.50 0.55 0.63 0.78 1.02 1.24 1.27 1.44 1.45 0.99 0.76 0.75 0.80 0.87 0.87 0.93 1.03 1.05 1.01 1.09 1.21 1.18 1.13 1.05 1.14 1.20 1.26 1.29 1.37 1.40 1.29 1.21 1.27 1.32 1.35 1.32 1.28 1.27 1.28
0.55 0.71 0.83 0.85 0.75 0.65 0.60 0.53 0.61 0.89 1.20 1.22 1.24 1.18 0.88 0.75 0.73 0.76 0.80 0.85 0.83 0.81 0.82 0.76 0.76 0.87 0.89 0.90 0.98 1.05 1.18 1.33 1.36 1.39 1.37 1.36 1.31 1.34 1.28 1.21 1.20 1.19 1.16 1.12
0.47 0.48 0.43 0.37 0.33 0.38 0.45 0.47 0.57 0.72 0.89 1.14 1.02 0.81 0.68 0.65 0.63 0.65 0.71 0.64 0.61 0.59 0.61 0.62 0.61 0.63 0.65 0.70 0.80 0.88 0.99 1.20 1.33 1.42 1.43 1.35 1.31 1.27 1.24 1.18 1.09 1.09 1.02 0.99
0.49 0.43 0.29 0.23 0.22 0.29 0.40 0.50 0.64 0.71 0.77 0.79 0.70 0.66 0.51 0.48 0.43 0.44 0.50 0.52 0.53 0.48 0.43 0.44 0.48 0.51 0.56 0.60 0.68 0.72 0.84 1.01 1.13 1.20 1.25 1.33 1.31 1.16 1.09 1.04 1.03 1.01 0.96 0.93
0.36 0.36 0.32 0.26 0.21 0.33 0.55 0.61 0.68 0.69 0.63 0.55 0.52 0.47 0.34 0.31 0.28 0.29 0.35 0.40 0.48 0.46 0.38 0.36 0.37 0.41 0.49 0.58 0.61 0.66 0.78 0.93 0.99 1.07 1.10 1.17 1.18 1.05 0.98 0.90 0.85 0.88 0.87 0.90
0.32 0.37 0.45 0.35 0.31 0.57 0.76 0.59 0.53 0.59 0.49 0.34 0.32 0.31 0.28 0.24 0.21 0.19 0.20 0.23 0.27 0.31 0.31 0.35 0.32 0.33 0.37 0.45 0.56 0.70 0.76 0.78 0.81 0.89 0.94 0.95 0.96 0.93 0.87 0.77 0.75 0.79 0.84 0.89
0.32 0.43 0.55 0.50 0.49 0.61 0.67 0.45 0.43 0.51 0.49 0.29 0.23 0.21 0.18 0.17 0.16 0.14 0.13 0.15 0.16 0.18 0.23 0.26 0.26 0.26 0.27 0.30 0.34 0.40 0.47 0.53 0.57 0.68 0.76 0.80 0.83 0.82 0.78 0.74 0.82 0.86 0.85 0.87
0.44 0.52 0.60 0.59 0.68 0.76 0.52 0.23 0.22 0.38 0.59 0.28 0.17 0.16 0.14 0.15 0.18 0.16 0.15 0.16 0.14 0.13 0.14 0.17 0.20 0.20 0.19 0.20 0.21 0.26 0.33 0.39 0.43 0.50 0.58 0.65 0.73 0.76 0.81 0.94 1.05 1.08 1.03 0.94
0.37 0.46 0.56 0.63 0.84 0.79 0.46 0.22 0.24 0.46 0.61 0.32 0.18 0.16 0.17 0.18 0.17 0.14 0.15 0.16 0.15 0.13 0.12 0.14 0.17 0.17 0.18 0.19 0.18 0.22 0.27 0.29 0.34 0.34 0.42 0.53 0.69 0.78 0.90 1.06 1.10 1.08 1.03 0.92
0.40 0.54 0.65 0.79 1.02 1.03 0.52 0.31 0.38 0.38 0.26 0.21 0.15 0.14 0.15 0.15 0.15 0.16 0.17 0.15 0.16 0.16 0.15 0.14 0.14 0.13 0.16 0.19 0.18 0.21 0.29 0.31 0.37 0.40 0.41 0.47 0.59 0.74 0.91 1.05 1.05 1.06 1.06 0.97
0.36 0.62 0.87 0.89 0.89 0.67 0.41 0.31 0.25 0.21 0.22 0.15 0.14 0.15 0.16 0.15 0.16 0.16 0.17 0.17 0.16 0.17 0.18 0.17 0.15 0.14 0.15 0.17 0.20 0.23 0.27 0.31 0.35 0.40 0.37 0.38 0.47 0.61 0.79 0.89 0.92 0.96 1.00 0.96
0.21 0.30 0.49 0.48 0.35 0.26 0.23 0.20 0.16 0.12 0.13 0.11 0.10 0.12 0.17 0.21 0.21 0.17 0.17 0.19 0.20 0.19 0.18 0.17 0.16 0.16 0.16 0.18 0.21 0.26 0.31 0.33 0.33 0.34 0.37 0.36 0.37 0.40 0.49 0.58 0.64 0.73 0.79 0.80
0.21 0.27 0.37 0.36 0.22 0.16 0.17 0.17 0.14 0.11 0.11 0.10 0.10 0.10 0.12 0.18 0.19 0.15 0.17 0.18 0.20 0.21 0.22 0.20 0.19 0.20 0.19 0.20 0.21 0.25 0.30 0.34 0.35 0.35 0.38 0.39 0.40 0.41 0.43 0.45 0.49 0.54 0.58 0.69
0.14 0.21 0.30 0.32 0.22 0.18 0.15 0.15 0.15 0.13 0.11 0.11 0.11 0.13 0.15 0.18 0.19 0.19 0.18 0.18 0.18 0.20 0.23 0.24 0.24 0.25 0.24 0.23 0.24 0.25 0.26 0.29 0.32 0.34 0.34 0.33 0.35 0.38 0.38 0.41 0.45 0.50 0.50 0.58